2020 TE6
ephemeris date magn radius delta ra dec elong phase
Today21 Oct 202533.02.640 AU3.087 AU17h25m-24°37'54.7°17.9°
2020 TE6 - 2025-10-21
astro.vanbuitenen.nl


 
-1 year
-1 month
-1 day
Now
+1 day
+1 month
+1 year

The interactive orbit chart above shows the body's path through the solar system and its position at the given date. Green and blue lines are shown perpendicular to the ecliptic plane: Green if the path is above the ecliptic plane, blue if it is below. (Left-click and drag to rotate the view; Right-click and drag to move the view; Use scroll wheel to zoom in our out.)

The orbital elements of 2020 TE6 are:

            e (Eccentricity)                : 0.5528339
            a (Semimajor axis)              : 2.0096423
            i (Inclination)                 : 1.70331
            Ω (Longitude of ascending node) : 24.79743
            ω (Argument of perihelion)      : 43.89733
            M (Mean anomaly)                : 203.01650
            Epoch                           : 2025 May 05

            L (Longitude of perihelion)     : 68.68211
            B (Latitude of perihelion)      : 1.18093
            P (Orbital period in years)     : 2.85            
        

The light curve chart below shows the estimated development of the minor planet's magnitude.


The all-sky chart below shows the path of the minor planet over the same period as the light curve. The current position is marked yellow.





The following chart shows the path of the minor planet in the next few days. The field of view is optimized for (~10x50) binoculars and finderscopes.




Ephemerides:
Date       Time       RA (2000)    DEC (2000)    delta   radius  elong  phase   PA    magn
2025-10-21 00:00 UT   17 25 46.1   -24 37 03     3.087    2.640   54.7   17.9    94   33.0 
2025-10-21 05:13 UT   17 26 03.4   -24 37 14     3.089    2.639   54.6   17.9    94   33.0 
2025-10-22 00:00 UT   17 27 06.0   -24 37 50     3.094    2.636   54.0   17.8    94   33.0 
2025-10-23 00:00 UT   17 28 26.6   -24 38 35     3.102    2.632   53.4   17.7    94   33.0 
2025-10-24 00:00 UT   17 29 47.9   -24 39 18     3.109    2.628   52.7   17.5    94   33.0 
2025-10-25 00:00 UT   17 31 10.0   -24 39 60     3.116    2.623   52.0   17.4    94   33.0 
2025-10-26 00:00 UT   17 32 32.8   -24 40 39     3.123    2.619   51.3   17.2    94   33.0 
2025-10-27 00:00 UT   17 33 56.3   -24 41 16     3.130    2.615   50.6   17.1    94   33.0 
2025-10-28 00:00 UT   17 35 20.5   -24 41 51     3.137    2.610   49.9   16.9    94   33.0 
2025-10-29 00:00 UT   17 36 45.4   -24 42 24     3.143    2.606   49.3   16.8    93   33.0 
2025-10-30 00:00 UT   17 38 11.0   -24 42 54     3.150    2.602   48.6   16.6    93   33.0 
2025-10-31 00:00 UT   17 39 37.3   -24 43 23     3.156    2.597   47.9   16.5    93   33.0 
2025-11-01 00:00 UT   17 41 04.3   -24 43 48     3.162    2.593   47.3   16.3    93   32.9 
2025-11-02 00:00 UT   17 42 31.9   -24 44 12     3.168    2.588   46.6   16.2    93   32.9 
2025-11-03 00:00 UT   17 44 00.1   -24 44 32     3.174    2.584   45.9   16.0    93   32.9 
2025-11-04 00:00 UT   17 45 29.0   -24 44 50     3.180    2.580   45.3   15.8    93   32.9 
2025-11-05 00:00 UT   17 46 58.6   -24 45 06     3.185    2.575   44.6   15.7    93   32.9 
2025-11-06 00:00 UT   17 48 28.8   -24 45 18     3.191    2.571   43.9   15.5    93   32.9 
2025-11-07 00:00 UT   17 49 59.6   -24 45 28     3.196    2.566   43.3   15.4    92   32.9 
2025-11-08 00:00 UT   17 51 31.0   -24 45 34     3.201    2.561   42.6   15.2    92   32.9 
2025-11-09 00:00 UT   17 53 03.1   -24 45 38     3.206    2.557   42.0   15.0    92   32.9 
2025-11-10 00:00 UT   17 54 35.7   -24 45 39     3.211    2.552   41.3   14.8    92   32.9 
2025-11-11 00:00 UT   17 56 09.0   -24 45 36     3.216    2.548   40.7   14.7    92   32.9 
2025-11-12 00:00 UT   17 57 42.9   -24 45 30     3.220    2.543   40.0   14.5    92   32.9 
2025-11-13 00:00 UT   17 59 17.3   -24 45 21     3.225    2.538   39.4   14.3    92   32.9 
2025-11-14 00:00 UT   18 00 52.4   -24 45 09     3.229    2.534   38.7   14.1    92   32.9 
2025-11-15 00:00 UT   18 02 28.1   -24 44 53     3.233    2.529   38.1   14.0    91   32.9 


    Terminology:
            
    delta:  distance between minor planet and earth in AU
    radius: distance between minor planet and sun in AU
    magn:   magnitude (brightness) estimate    
    ra:     right ascension in hours (24h = 360deg)
    dec:    declination in degrees
    elong:  elongation in degrees (angle sun-earth-minor planet)    
    phase:  phase angle in degrees (angle sun-minor planet-earth)        
    AU:     Astronomical Unit (mean distance between earth and sun: 149597870.7 km
    

Orbital elements provided by the MPC (Minor Planet Center).
Calculations by a modified version of AAPlus, a C# implementation of the AA+ project by PJ Naughter from the algorithms presented in the book "Astronomical Algorithms" by Jean Meeus.
NGC2000 dso catalog and star labels from VizieR as provided by the Strasbourg astronomical Data Center.
Tycho2 catalog from the ESO archive.